This is the latest recevied weather packets stored in our database for station/object VR2OT-10. If no packets are shown the sender has not sent any weather packets the latest 10 day(s).
| Time | Temp. | Humidity | Pressure | Rain* | Wind** | Luminosity | Snow |
|---|---|---|---|---|---|---|---|
| 1787460933 | 31.11° C | 76% | 1001.5 hPa | - | 2.68 m/s, 270° | - | - |
| 1787459134 | 30.56° C | 77% | 1001.8 hPa | - | 2.24 m/s, 270° | - | - |
| 1787458233 | 31.11° C | 75% | 1002 hPa | - | 2.68 m/s, 270° | - | - |
| 1787456434 | 30.56° C | 75% | 1002.2 hPa | - | 2.68 m/s, 270° | - | - |
| 1787455533 | 30.56° C | 75% | 1002.1 hPa | - | 1.79 m/s, 270° | - | - |
| 1787454631 | 30.56° C | 74% | 1002.1 hPa | - | 1.79 m/s, 270° | - | - |
| 1787452834 | 30.56° C | 76% | 1002.5 hPa | - | 2.68 m/s, 270° | - | - |
| 1787451932 | 30.56° C | 76% | 1002.6 hPa | - | 3.13 m/s, 270° | - | - |
| 1787450133 | 30° C | 78% | 1002.5 hPa | - | 1.79 m/s, 315° | - | - |
| 1787448333 | 30° C | 81% | 1002.6 hPa | - | 2.68 m/s, 315° | - | - |
| 1787447434 | 30° C | 81% | 1002.5 hPa | - | 1.34 m/s, 315° | - | - |
| 1787446532 | 29.44° C | 82% | 1002.2 hPa | - | 1.34 m/s, 315° | - | - |
| 1787445634 | 29.44° C | 81% | 1002.1 hPa | - | 1.79 m/s, 270° | - | - |
| 1787444732 | 28.89° C | 81% | 1002.2 hPa | - | 1.79 m/s, 270° | - | - |
| 1787442933 | 28.89° C | 81% | 1001.7 hPa | - | 1.79 m/s, 270° | - | - |
| 1787442034 | 28.89° C | 81% | 1001.7 hPa | - | 1.79 m/s, 270° | - | - |
| 1787440235 | 28.33° C | 80% | 1001.3 hPa | - | 2.24 m/s, 270° | - | - |
| 1787439333 | 28.33° C | 81% | 1001 hPa | - | 1.79 m/s, 270° | - | - |
| 1787438432 | 28.33° C | 79% | 1001.1 hPa | - | 2.24 m/s, 315° | - | - |
| 1787437533 | 28.33° C | 81% | 1001.1 hPa | - | 1.79 m/s, 315° | - | - |
| 1787436633 | 28.33° C | 82% | 1000.8 hPa | - | 1.79 m/s, 315° | - | - |
| 1787435732 | 28.33° C | 83% | 1000.6 hPa | - | 1.34 m/s, 270° | - | - |
| 1787434834 | 28.33° C | 83% | 1000.6 hPa | - | 0.89 m/s, 270° | - | - |
| 1787433032 | 27.78° C | 81% | 1000.6 hPa | - | 1.79 m/s, 270° | - | - |
| 1787432133 | 27.78° C | 82% | 1000.6 hPa | - | 1.34 m/s, 270° | - | - |
* Rain since midnight (hover to see other rain measurements)
** Current wind speed in m/s (hover to see current wind gust speed)